Flag for Germany Weather past 2 weeks in Idar-Oberstein, Rhineland-Palatinate, Germany

Now
59 °F

Partly cloudy.


Feels Like: 58 °F
Forecast: 60 / 75 °F
Wind: 8 mph from Southeast

Location: Hahn

Current Time: Sep 19, 2014 at 8:25:55 AM

Latest Report: Sep 19, 2014 at 7:50 AM


Visibility: 6 mi

Pressure: 29.92 "Hg

Humidity: 100%

Dew point: 59 °F

Location of Idar-ObersteinLocation

Historic Weather in Idar-Oberstein — Graph

°F

Idar-Oberstein temperature yesterday

Maximum temperature yesterday: 73 °F (at 3:20 PM)
Minimum temperature yesterday: 59 °F (at 12:20 AM)
Average temperature yesterday: 64 °F

Past Weeks' High & Low Weather Summary

 TemperatureHumidityPressure
High73 °F (Sep 18, 3:20 PM)100% (Sep 5, 1:20 AM)30.21 "Hg (Sep 5, 1:20 AM)
Low46 °F (Sep 12, 12:50 AM)59% (Sep 9, 5:20 PM)29.86 "Hg (Sep 18, 6:50 AM)
Average59 °F87%30.04 "Hg
* Reported Sep 4 7:20 AM — Sep 19 7:20 AM, Idar-Oberstein, Weather by CustomWeather, © 2014

Note: Actual official high and low records may vary slightly from our data, if they occured in-between our weather recording intervals... More about our weather records

Advertising

Idar-Oberstein weather history for previous 24 hours

 ConditionsComfort  
Time TempWeatherWind HumidityBarometerVisibility
7:20 AM
Sep 19
59 °FPartly cloudy.7 mph100%29.92 "HgN/A
6:50 AM59 °FRain. Partly cloudy.5 mph100%29.89 "Hg4 mi
6:20 AM61 °FStrong thunderstorms. Passing clouds.5 mph100%29.89 "Hg3 mi
5:50 AM59 °FStrong thunderstorms. Passing clouds.10 mph100%29.89 "Hg4 mi
5:20 AM59 °FRain showers. Passing clouds.6 mph100%29.89 "HgN/A
4:50 AM59 °FPassing clouds.7 mph94%29.89 "HgN/A
4:20 AM57 °FPassing clouds.8 mph94%29.89 "HgN/A
3:50 AM57 °FClear.8 mph94%29.89 "Hg10 mi
3:20 AM59 °FClear.7 mph94%29.89 "Hg10 mi
2:50 AM59 °FClear.8 mph94%29.92 "Hg10 mi
2:20 AM61 °FClear.9 mph88%29.92 "Hg10 mi
1:50 AM61 °FPassing clouds.8 mph88%29.89 "HgN/A
1:20 AM63 °FPassing clouds.8 mph83%29.92 "HgN/A
12:50 AM61 °FPassing clouds.9 mph88%29.92 "HgN/A
12:20 AM63 °FClear.9 mph83%29.92 "Hg10 mi
11:50 PM
Sep 18
64 °FClear.9 mph78%29.92 "Hg10 mi
11:20 PM66 °FPassing clouds.8 mph73%29.92 "HgN/A
10:50 PM64 °FClear.9 mph83%29.92 "Hg10 mi
10:20 PM64 °FPassing clouds.12 mph83%29.92 "HgN/A
9:20 PM66 °FClear.9 mph78%29.92 "Hg10 mi
8:50 PM66 °FClear.8 mph78%29.92 "Hg10 mi
8:20 PM66 °FScattered clouds.9 mph83%29.89 "HgN/A
7:50 PM66 °FScattered clouds.7 mph78%29.89 "HgN/A
7:20 PM68 °FPassing clouds.8 mph73%29.89 "HgN/A
6:50 PM70 °FScattered showers. Passing clouds.9 mph69%29.89 "HgN/A
6:20 PM72 °FThundershowers. Passing clouds.9 mph65%29.89 "HgN/A
5:50 PM72 °FThundershowers. Passing clouds.9 mph65%29.89 "HgN/A
5:20 PM72 °FThundershowers. Scattered clouds.5 mph65%29.89 "HgN/A
4:50 PM72 °FScattered clouds.8 mph65%29.89 "HgN/A
4:20 PM73 °FScattered clouds.7 mph65%29.89 "HgN/A
3:50 PM72 °FScattered clouds.9 mph69%29.89 "HgN/A
3:20 PM73 °FPassing clouds.8 mph65%29.89 "HgN/A
2:50 PM72 °FPassing clouds.10 mph69%29.89 "HgN/A
2:20 PM70 °FPassing clouds.9 mph64%29.89 "HgN/A
1:50 PM70 °FPassing clouds.10 mph69%29.89 "HgN/A
1:20 PM68 °FScattered clouds.7 mph78%29.92 "HgN/A
12:50 PM64 °FSunny.9 mph88%29.92 "Hg10 mi
12:20 PM63 °FScattered showers. Partly sunny.8 mph88%29.92 "HgN/A
11:50 AM63 °FLight rain. Broken clouds.8 mph88%29.92 "HgN/A
11:20 AM61 °FLight rain. Broken clouds.10 mph94%29.92 "HgN/A
10:50 AM61 °FLight rain. Broken clouds.12 mph94%29.92 "HgN/A
10:20 AM61 °FLight rain. Partly sunny.12 mph94%29.92 "HgN/A
9:50 AM61 °FScattered showers. Partly sunny.12 mph88%29.89 "HgN/A
9:20 AM61 °FBroken clouds.12 mph88%29.89 "HgN/A
8:50 AM61 °FBroken clouds.13 mph88%29.89 "HgN/A
8:20 AM59 °FPartly sunny.10 mph94%29.89 "HgN/A
Weather by CustomWeather, © 2014

See weather overviewHow to use our weather pages